sat.trackr.live / text

‹ back to catalog

STARLINK-35445

NORAD 65880 · 2025-223AC

PAYLOAD ACTIVE UNKNOWN

§ Identity

Operator
Country
US
Launch date
2025-10-03
Launch site
AFWTR
Launch vehicle
Mass (kg)
RCS (m²)

Purposes: comms

External: N2YO · Heavens-Above · Gunter

§ Orbital elements

Epoch: 2026-09-20T22:50:37.797504Z

Period
93.85 min
Inclination
53.1594°
Eccentricity
0.0001465
Mean motion
15.34364617 rev/d
Perigee alt
461.8 km
Apogee alt
463.8 km
Semi-major
6,840.9 km
B*
1.1998e-3
RAAN
103.4762°
Arg perigee
89.1415°
Mean anomaly
270.9755°
Rev number
5,415

§ Raw data

STARLINK-354451 65880U 25223AC  26263.95182636  .00040334  00000+0  11998-2 0  99932 65880  53.1594 103.4762 0001465  89.1415 270.9755 15.34364617 54153

JSON: /api/v1/satellites/65880 · /tle

For live sub-satellite position, see the globe view (requires WebGL).

§ Visibility from observer

Set your observer location to see the next 7 days of passes ≥ 10°. The values pass through the URL so the page stays shareable.

No JS? Fill the form by hand. The geolocation button needs JavaScript.